Starlink 2591

operational
NORAD ID: 48361 Int'l Des: 2021-038 Owner: SPXS Country: US Constellation: starlink
LEOCIRCULARSTARLINK_TYPE

About Starlink 2591

Description loading...

Live Position

Loading 3D Globe...

Upcoming Passes

Altitude History

Altitude vs Time

uPlot chart will show altitude changes over time

Two-Line Element Set

1 48361U 21038J 25341.21781464 .00003545 00000-0 25676-3 0 9990
2 48361 53.0565 56.7381 0001529 95.8232 264.2931 15.06405170253088
Epoch: Dec 7, 2025 • Age: 23 hours

Current Status

Altitude 547.3 km
Velocity 7.59 km/s
Sub-Earth Point 4.74°N, 87.35°E
Launch Date May 4, 2021
Age 4.5 years
Type internet

Technical Details

Classification Payload
Mass 260.00 kg
Dry Mass 248.00 kg
Total Mass 260.00 kg
Length 0.20 m
Diameter 2.80 m
Span 9.00 m
Shape Box + pan
Manufacturer SPXS
Bus Type Starlink
Phase Status In Orbit
Owner/State SPXS/US

Large Constellations

Loading constellations...